Regional Weather Roundup
Issued by NWS

Home | Current Version | Previous Version | Graphics & Text | Print | Product List | Glossary On
Versions: 1 2 3 4 5 6 7 8 9 10 11 12 13 14 15 16 17 18 19 20 21 22 23 24 25 26 27 28 29 30 31 32 33 34 35 36 37 38 39 40 41 42 43 44 45 46 47 48 49 50
000
ASUS43 KLOT 240808
RWRIL

ILLINOIS REGIONAL WEATHER ROUNDUP
NATIONAL WEATHER SERVICE CHICAGO/ROMEOVILLE IL
300 AM CDT MON APR 24 2017

NOTE: "FAIR" INDICATES FEW OR NO CLOUDS BELOW 12,000 FEET WITH NO
SIGNIFICANT WEATHER AND/OR OBSTRUCTIONS TO VISIBILITY.

* THESE STATIONS ARE NOT UNDER NWS QUALITY CONTROL. THEY ALSO MAY NOT
  REPORT WEATHER SUCH AS PRECIPITATION OR FOG.

ILZ001-002-007-009-015-016-024-240900-
NORTHWEST ILLINOIS

CITY           SKY/WX    TMP DP  RH WIND       PRES   REMARKS
MOLINE         CLEAR     41  35  79 CALM      29.97F
STERLING*      CLEAR     47  34  60 CALM      29.99F
SAVANNA*       CLEAR     44  40  87 E3        29.98F
$$

ILZ003-004-008-010-011-017-018-240900-
NORTH CENTRAL ILLINOIS

CITY           SKY/WX    TMP DP  RH WIND       PRES   REMARKS
ROCKFORD       PTCLDY    47  37  68 E5        30.02F
FREEPORT*      CLEAR     46  33  61 SE6       30.00F
ROCHELLE*      CLEAR     45  32  59 E6        30.00F
DE KALB*       CLEAR     43  35  74 E5        30.01S
PERU*          CLEAR     46  32  57 CALM      30.00F
$$

ILZ005-006-012>014-019>023-240900-
NORTHEAST ILLINOIS

CITY           SKY/WX    TMP DP  RH WIND       PRES   REMARKS
CHICAGO-OHARE  PTCLDY    42  37  82 NE5       30.01F
CHICAGO-MIDWAY PTCLDY    44  39  82 N5        30.01F
AURORA         CLEAR     43  37  79 E5        30.00F
LANSING*       CLEAR     42  41  99 CALM      30.02S
JOLIET*        CLEAR     47  35  64 NE3       30.00F
WAUKEGAN       CLEAR     33  32  96 CALM      30.01F
DUPAGE AIRPORT CLEAR     38  37  97 NE5       30.00F WCI  34
KANKAKEE*      CLEAR     41  29  62 CALM      30.01F
WHEELING       CLEAR     40  39  97 CALM      30.03F
MORRIS*        CLEAR     44  31  60 CALM      29.99F
ROMEOVILLE*    CLEAR     42  39  89 NE6       30.00F
NORTHERLY ISL    N/A     41  39  93 MISG        N/A
$$

LMZ740>746-240900-
SOUTHERN LAKE MICHIGAN

STATION/POSITION SKY/WX   TEMP    WIND        PRES    VSBY  WAVE
                          AIR SEA DIR/SP/G                  HT/PER
                          (F)     (DEG/KT/KT) (MB)    (MI)  (FT/S)
SOUTHERN BUOY              40 40   30/  6/  6 1017.7          3/ 6
HARRISON CRIB              42     360/  7/  8   N/A
BURNHAM HARBOR             42     350/  6/ 11   N/A
CALUMET HARBOR             43     360/  5/  8 1015.8F
BURNS HARBOR               45      30/  5/  7 1016.9F
MICHIGAN CITY              46      30/  4/  5   N/A
ST. JOSEPH                 49 50   30/  4/  4 1016.8          2/ 2
$$

ILZ025>027-034>036-040-047-049-050-058-095>099-240900-
WEST-CENTRAL ILLINOIS

CITY           SKY/WX    TMP DP  RH WIND       PRES   REMARKS
QUINCY         CLOUDY    55  26  32 E7        29.96F
GALESBURG*     CLEAR     48  31  52 E3        29.97F
MACOMB*        CLEAR     42  33  70 CALM      30.00F
JACKSONVILLE*  CLEAR     44  30  58 E6        29.98S
PITTSFIELD*    CLOUDY    42  37  81 CALM      29.98F
$$

ILZ028>032-037-038-041>044-048-051>054-059>061-240900-
CENTRAL ILLINOIS

CITY           SKY/WX    TMP DP  RH WIND       PRES   REMARKS
PONTIAC        CLEAR     46  29  53 E3        30.00S
BLOOMINGTON    CLEAR     46  26  45 E9        30.00F
DECATUR        CLEAR     45  28  51 CALM      29.98F
PEORIA         CLEAR     48  27  44 E3        29.99F
LACON*         CLEAR     42  31  66 CALM      29.99S
LINCOLN*       CLEAR     45  29  54 CALM      29.99S
SPRINGFIELD    CLEAR     46  31  55 NE5       29.98F
TAYLORVILLE    CLEAR     46  31  56 CALM      29.98S
$$

ILZ033-039-045-046-055>057-062-063-240900-
EAST-CENTRAL ILLINOIS

CITY           SKY/WX    TMP DP  RH WIND       PRES   REMARKS
CHAMPAIGN      CLEAR     48  27  44 NE9       29.98F
RANTOUL*       CLOUDY    48  31  51 NE7       29.98F
MATTOON        CLEAR     45  33  63 NE3       29.96F
PARIS*         CLEAR     45  34  65 NE5       29.98F
$$

ILZ079-100>102-240900-
SOUTHWEST ILLINOIS

CITY           SKY/WX    TMP DP  RH WIND       PRES   REMARKS
ALTON          CLEAR     44  35  69 N3        29.96F
BELLEVILLE     CLEAR     48  34  58 CALM      29.94F
CAHOKIA*       CLEAR     40  36  86 CALM      29.95F
SPARTA*        CLEAR     49  33  53 N6        29.95F
$$

ILZ064>066-069>071-074>076-080>082-084>086-088>090-092>094-240900-
SOUTH-CENTRAL ILLINOIS

CITY           SKY/WX    TMP DP  RH WIND       PRES   REMARKS
CARBONDALE     CLEAR     42  39  89 CALM      29.92F
CAIRO*         CLEAR     49  41  71 N8        29.88F
EFFINGHAM*     CLEAR     52  33  48 CALM      29.97F
MARION         CLEAR     48  36  61 CALM      29.93S
MT. VERNON     CLEAR     48  34  58 N7        29.93F
CENTRALIA*     CLEAR     46  36  67 CALM      29.94F
SALEM*         CLEAR     53  32  45 NE5       29.94F
METROPOLIS*    CLEAR     46  44  90 CALM      29.90S
$$

ILZ067-068-072-073-078-083-087-091-240900-
SOUTHEAST ILLINOIS

CITY           SKY/WX    TMP DP  RH WIND       PRES   REMARKS
LAWRENCEVILLE  CLEAR     51  33  50 N12       29.93F
FLORA*         CLEAR     51  33  50 N6        29.94F
FAIRFIELD*     CLEAR     50  34  53 N6        29.91F
HARRISBURG*    CLEAR     50  38  63 N7        29.91F
ROBINSON*      CLEAR     45  33  64 N3        29.95F
CARMI*         CLEAR     49  37  65 N5        29.90F
$$

ABBREVIATIONS USED IN REMARKS
   TC - TEMPERATURE IN CELSIUS
  WCI - WIND CHILL INDEX
   HX - HEAT INDEX
  VSB - VISIBILITY
$$





USA.gov is the U.S. government's official web portal to all federal, state and local government web resources and services.